Regional Weather Roundup
Issued by NWS

Home | Current Version | Previous Version | Graphics & Text | Print | Product List | Glossary On
Versions: 1 2 3 4 5 6 7 8 9 10 11 12 13 14 15 16 17 18 19 20 21 22 23 24 25 26 27 28 29 30 31 32 33 34 35 36 37 38 39 40 41 42 43 44 45 46 47 48 49 50
000
ASUS43 KDMX 231001
RWRIA

WEATHER ROUNDUP FOR IOWA
NATIONAL WEATHER SERVICE DES MOINES IA
500 AM CDT FRI JUN 23 2017

NOTE: "FAIR" INDICATES FEW OR NO CLOUDS BELOW 12,000 FEET WITH NO
SIGNIFICANT WEATHER AND/OR OBSTRUCTIONS TO VISIBILITY.

* - THESE STATIONS ARE NOT NWS STATIONS...THUS NOT UNDER NWS
QUALITY CONTROL.  THEY ALSO DO NOT REPORT WEATHER SUCH
AS PRECIPITATION OR FOG.

IAZ001>003-012>014-020>022-031>034-043>046-231100-
   NORTHWEST IOWA

CITY           SKY/WX    TMP DP  RH WIND       PRES   REMARKS
CARROLL *      CLEAR     57  54  88 NW6       29.80R
CHEROKEE *     CLEAR     54  53  99 CALM      29.83R
DENISON *      CLEAR     55  54  94 CALM      29.83R
LE MARS *      CLEAR     55  52  88 NW5       29.85R
ORANGE CITY *  CLEAR     54  52  94 NW8       29.84F
SHELDON *      CLEAR     54  50  87 W8        29.82S
SIOUX CITY       N/A    N/A N/A N/A MISG      29.85R
SPENCER        CLEAR     53  49  86 W7        29.81R
STORM LAKE *   CLEAR     55  50  82 W8        29.83R
$$

IAZ055>058-069>071-079>083-090>094-231100-
   SOUTHWEST IOWA

CITY           SKY/WX    TMP DP  RH WIND       PRES   REMARKS
ATLANTIC *     PTCLDY    63  59  88 N5        29.81R
AUDUBON *      PTCLDY    57  54  88 CALM      29.83R
CLARINDA *     PTCLDY    64  59  82 N7        29.83R
COUNCIL BLFS * PTCLDY    63  55  77 N5        29.82R
CRESTON *      MOCLDY    64  63  94 NE9       29.81R
HARLAN  *      CLEAR     59  55  88 CALM      29.85R
LAMONI         CLOUDY    68  66  93 N9        29.78R
RED OAK *      CLEAR     63  61  94 N6        29.81R
SHENANDOAH *   CLOUDY    64  61  88 N6        29.81R
$$

IAZ047>049-059>061-072>074-084-231100-
   CENTRAL IOWA

CITY           SKY/WX    TMP DP  RH WIND       PRES   REMARKS
AMES           CLEAR     63  62  97 N7        29.78R
ANKENY *       CLOUDY    64  63  94 N6        29.80R
BOONE *        PTCLDY    61  57  88 N6        29.78R
CHARITON *     CLOUDY    68  66  94 N13       29.77R
DES MOINES     CLOUDY    66  63  90 N9        29.79R
GRINNELL*      CLOUDY    67  64  90 N9        29.78R
KNOXVILLE *    CLOUDY    70  66  88 N6        29.75S
MARSHALLTOWN   PTCLDY    64  64 100 N7        29.78R
NEWTON *       CLOUDY    66  64  94 N6        29.77R
PELLA *        CLOUDY    68  67  94 N5        29.77R
PERRY *          N/A     62  60  95 NW7       29.79S
$$

IAZ004>006-015-016-023>025-035-036-231100-
   NORTH CENTRAL IOWA

CITY           SKY/WX    TMP DP  RH WIND       PRES   REMARKS
ALGONA *       CLEAR     57  55  94 CALM      29.79R
ESTHERVILLE    CLEAR     54  52  93 W9        29.78F
FORT DODGE *   CLEAR     57  54  88 NW5       29.80R
MASON CITY     CLEAR     56  54  93 NW6       29.79S
FOREST CITY *    N/A     55  48  76 CALM      29.77S
WEBSTER CITY * CLEAR     57  57 100 CALM      29.77R
IOWA FALLS *     N/A     63  61  94 CALM      29.79R
$$

IAZ007>011-017>019-026>030-037>042-050>054-066-231100-
   NORTHEAST IOWA

CITY           SKY/WX    TMP DP  RH WIND       PRES   REMARKS
CEDAR RAPIDS   CLOUDY    67  66  97 N7        29.74R
CHARLES CITY * CLOUDY    63  63 100 CALM      29.78R FOG
CLINTON *      CLOUDY    67  66  97 N14G23    29.69S
DECORAH *      MOCLDY    63  63 100 W5        29.74R FOG
DUBUQUE        CLOUDY    64  63  96 N9        29.73R
MONTICELLO *   MOCLDY    66  63  88 N5        29.73R
OELWEIN *      PTCLDY    64  64 100 NW5       29.77R
WATERLOO         N/A     64  63  96 NW5       29.76R
$$

IAZ064-065-067-068-078-231100-
   EAST CENTRAL IOWA

CITY           SKY/WX    TMP DP  RH WIND       PRES   REMARKS
DAVENPORT      CLOUDY    69  66  90 N14       29.70R
IOWA CITY      CLOUDY    70  64  81 N16G24    29.72R
MT. PLEASANT * RAIN      70  69  97 NW5G17    29.70R
MUSCATINE *    MOCLDY    72  66  83 N9        29.70R
QUAD CITIES    CLOUDY    73  68  84 N10       29.66R
$$

IAZ062-063-075>077-085>089-095>099-231100-
   SOUTHEAST IOWA

CITY           SKY/WX    TMP DP  RH WIND       PRES   REMARKS
BURLINGTON     CLOUDY    74  73  97 NW10G21   29.67R
FAIRFIELD *    CLOUDY    70  68  94 N12       29.72R
FORT MADISON * CLOUDY    73  72  94 NW10G18   29.69R
KEOKUK *       LGT RAIN  73  72  94 NW10      29.69R
OSKALOOSA *    LGT RAIN  67  65  93 N10G18    29.75R
OTTUMWA        CLOUDY    70  70 100 N10       29.73R
WASHINGTON *   LGT RAIN  70  66  88 N14       29.73R
$$

ABBREVIATIONS USED IN REMARKS
   TC - TEMPERATURES IN CELSIUS
  WCI - WIND CHILL INDEX
   HX - HEAT INDEX
  VSB - VISIBILITY
$$





USA.gov is the U.S. government's official web portal to all federal, state and local government web resources and services.